Powrót do katalogu

FOSSASAT2E25

AktywnyNaukaSSO
NORAD 68478·PAYLOAD·🇪🇸 Spain

Wystrzelony Mar 30, 2026 z Vandenberg Space Force Base

Loading…

Następne Przeloty (najbliższe 24 godziny)

TLE

ŚwieżeSource: Space-Track

Epoka: Sep 14, 2026, 14:50 UTC

1 68478U 26067BQ  26257.61814490  .00000721  00000-0  76161-4 0  9994
2 68478  97.7693 214.6258 0002336  31.0340 329.1017 14.92264500 25068

Śledź FOSSASAT2E25 w czasie rzeczywistym z AllMySat

Download on the App Store